Hourly Weather Roundup
Issued by NWS Central Illinois

Home | Current Version | Previous Version | Text Only | Print | Product List | Glossary On
Versions: 1 2 3 4 5 6 7 8 9 10 11 12 13 14 15 16 17 18 19 20 21 22 23 24 25 26 27 28 29 30 31 32 33 34 35 36 37 38 39 40 41 42 43 44 45 46 47 48 49 50
000
NZUS43 KILX 051910
HWRILX

AREA WEATHER ROUNDUP
NATIONAL WEATHER SERVICE, LINCOLN IL
100 PM CST MON DEC 05 2016


CITY           SKY/WX    TMP DP  RH WIND       PRES   REMARKS
BLOOMINGTON    CLOUDY    33  31  92 S12       30.00F FOG     WCI  24
CHAMPAIGN      CLOUDY    37  33  85 S13       30.03S WCI  29
DANVILLE       CLOUDY    36  33  88 SE8       30.02S WCI  30
DECATUR        CLOUDY    37  33  85 SE12      30.01F WCI  29
EFFINGHAM      CLOUDY    40  37  89 E9        30.02F WCI  34
FLORA          PTSUNNY   44  37  76 SE8       30.01F
GALESBURG      CLOUDY    35  34  98 S9        29.96F FOG     WCI  27
JACKSONVILLE   CLOUDY    39  36  87 SE7       29.97F WCI  34
LACON          CLOUDY    35  32  91 S10       29.98F WCI  27
LAWRENCEVILLE  MOSUNNY   42  34  73 E8        30.03F
LITCHFIELD     CLOUDY    40  36  86 S9        29.98F WCI  33
$$


CITY           SKY/WX    TMP DP  RH WIND       PRES   REMARKS
LINCOLN        CLOUDY    37  35  94 SE10      30.01S WCI  29
MACOMB         CLOUDY    37  37 100 S12       29.98F FOG     WCI  29
MATTOON        CLOUDY    39  33  79 SE6       30.01F WCI  35
MT CARMEL AP   PTSUNNY   41  34  75 E7        30.02F
OLNEY-NOBLE AP PTSUNNY   41  36  81 SE6       30.01F
PARIS          PTSUNNY   39  36  87 SE6       30.04F WCI  35
PEORIA         CLOUDY    36  34  92 S13       29.99F WCI  27
PONTIAC        CLOUDY    33  33 100 S10       30.01F WCI  25
RANTOUL        CLOUDY    37  34  91 S12       30.02F WCI  29
SPRINGFIELD    CLOUDY    39  36  89 S6        30.01S WCI  35
TAYLORVILLE    CLOUDY    37  34  90 SE8       30.00F WCI  30
$$

...REGIONAL REPORTS...


CITY           SKY/WX    TMP DP  RH WIND       PRES   REMARKS
CHICAGO O`HARE NOT AVBL
KANKAKEE       CLOUDY    33  31  92 S10       30.04F WCI  25
MOLINE         CLOUDY    36  32  85 S13G23    29.94F FOG     WCI  27
MOUNT STERLING CLOUDY    36  36  99 S8        29.95F WCI  30
MOUNT VERNON   NOT AVBL
PITTSFIELD     CLOUDY    38  37  94 SE9       29.96F WCI  32
QUINCY         CLOUDY    37  36  96 SE12      29.93F FOG     WCI  29
ROCKFORD       CLOUDY    32  30  92 S15       29.99F FOG     WCI  22
$$


CITY           SKY/WX    TMP DP  RH WIND       PRES   REMARKS
BURLINGTON     CLOUDY    34  34 100 S13       29.93F FOG     WCI  25
CEDAR RAPIDS   CLOUDY    32  32 100 S16       29.88F FOG     WCI  21
DES MOINES     PTSUNNY   50  36  58 S18       29.79F
KIRKSVILLE     PTSUNNY   37  36  96 SE14      29.88F WCI  28
OTTUMWA        PTSUNNY   41  36  82 S18       29.86F WCI  32
ST LOUIS       PTSUNNY   45  35  68 SE9       29.97F
$$


CITY           SKY/WX    TMP DP  RH WIND       PRES   REMARKS
TERRE HAUTE    SUNNY     42  33  70 SE8       30.04F
EVANSVILLE     CLOUDY    42  34  73 SE8       30.03F
INDIANAPOLIS   PTSUNNY   42  33  70 SE9       30.05F
LAFAYETTE      PTSUNNY   38  34  85 E5        30.05F WCI  34
MADISON        CLOUDY    32  31  96 S16       29.93F FOG     WCI  21
MILWAUKEE      CLOUDY    34  31  88 S10       29.98S FOG     WCI  26
$$






USA.gov is the U.S. government's official web portal to all federal, state and local government web resources and services.